1530849600.49,40784,19.25,73996.5,5.49,-18.21,-18.59,0,*75
1530849601.73,40785,19.25,73998.0,5.51,-18.17,-18.55,0,*74
1530849602.95,40786,19.25,73996.5,5.51,-18.25,-18.69,0,*79
1530849604.17,40787,19.25,73996.0,5.51,-18.17,-18.45,0,*77
1530849605.4,40788,19.25,73994.8,5.51,-18.17,-18.45,0,*78
1530849606.63,40789,19.25,73998.3,5.51,-18.25,-18.59,0,*75
1530849607.87,40790,19.25,73998.0,5.51,-18.25,-18.59,0,*7D
1530849609.11,40791,19.25,73998.0,5.51,-18.25,-18.59,0,*7C
1530849610.38,40792,19.25,73998.0,5.51,-18.31,-18.59,0,*7A
1530849611.63,40793,19.25,73998.8,5.51,-18.31,-18.69,0,*78
1530849612.87,40794,19.25,73996.0,5.51,-18.25,-18.55,0,*75
1530849614.13,40795,19.31,74002.0,5.51,-18.31,-18.69,0,*7E
1530849615.35,40796,19.31,74000.3,5.49,-18.31,-18.73,0,*7F
1530849616.56,40797,19.25,73996.8,5.49,-18.21,-18.59,0,*77
1530849617.78,40798,19.25,73998.5,5.49,-18.31,-18.73,0,*71
1530849619.0,40799,19.25,73996.8,5.51,-18.11,-18.45,0,*7E
1530849620.23,40800,19.25,73996.0,5.51,-18.17,-18.69,0,*79
1530849621.47,40801,19.25,73996.0,5.51,-18.25,-18.55,0,*76
1530849622.71,40802,19.25,73998.8,5.51,-18.25,-18.59,0,*79
1530849623.95,40803,19.25,73998.5,5.51,-18.17,-18.59,0,*79
1530849625.17,40804,19.25,73996.8,5.51,-18.11,-18.45,0,*75
1530849626.38,40805,19.25,73996.5,5.49,-18.21,-18.59,0,*73
1530849627.62,40806,19.31,74000.3,5.51,-18.17,-18.55,0,*70
1530849628.83,40807,19.25,73996.3,5.53,-18.17,-18.59,0,*7F
1530849630.07,40808,19.25,73996.5,5.51,-18.17,-18.55,0,*7E
1530849631.32,40809,19.25,73998.0,5.51,-18.11,-18.55,0,*79
1530849632.56,40810,19.25,73996.8,5.51,-18.17,-18.55,0,*77
1530849633.8,40811,19.25,73998.5,5.51,-18.25,-18.59,0,*7B
1530849635.04,40812,19.25,73994.3,5.51,-18.17,-18.55,0,*75
1530849636.28,40813,19.25,73996.0,5.51,-18.17,-18.59,0,*78
1530849637.47,40814,19.25,73994.0,5.53,-18.11,-18.49,0,*7A
1530849638.72,40815,19.25,73996.8,5.51,-18.17,-18.55,0,*72
1530849639.91,40816,19.25,73998.5,5.53,-18.11,-18.41,0,*70
1530849641.1,40817,19.31,73998.0,5.53,-18.21,-18.49,0,*7A
1530849642.31,40818,19.31,73996.8,5.53,-18.25,-18.55,0,*7C
1530849643.56,40819,19.25,73996.3,5.51,-18.31,-18.69,0,*75
1530849644.75,40820,19.25,73996.5,5.53,-18.25,-18.65,0,*74
1530849645.97,40821,19.31,74000.0,5.53,-18.17,-18.55,0,*77
1530849647.17,40822,19.25,73996.0,5.53,-18.11,-18.59,0,*7E
1530849648.37,40823,19.31,74002.0,5.53,-18.21,-18.65,0,*73
1530849649.56,40824,19.25,73996.8,5.53,-18.07,-18.49,0,*7E
1530849650.8,40825,19.25,73996.8,5.51,-18.25,-18.59,0,*7C
1530849652.01,40826,19.25,73996.3,5.53,-18.11,-18.55,0,*76
1530849653.2,40827,19.25,73998.3,5.53,-18.25,-18.65,0,*73
1530849654.42,40828,19.25,73996.0,5.53,-18.25,-18.55,0,*7F
1530849655.61,40829,19.25,73996.5,5.53,-18.25,-18.65,0,*7D
1530849656.8,40830,19.31,74000.3,5.53,-18.25,-18.65,0,*75
1530849658.01,40831,19.25,73996.8,5.53,-18.21,-18.55,0,*73
1530849659.21,40832,19.25,74000.3,5.53,-18.07,-18.49,0,*79
1530849660.42,40833,19.31,73998.8,5.53,-18.11,-18.55,0,*72
1530849661.61,40834,19.31,74000.0,5.53,-18.11,-18.49,0,*78
1530849662.83,40835,19.25,73996.0,5.51,-18.25,-18.65,0,*72
1530849664.04,40836,19.25,73998.8,5.53,-18.11,-18.55,0,*77
1530849665.26,40837,19.25,73996.8,5.53,-18.21,-18.55,0,*75
1530849666.49,40838,19.25,73998.0,5.57,-18.17,-18.59,0,*77
1530849667.69,40839,19.25,73996.8,5.53,-18.21,-18.69,0,*74
1530849668.9,40840,19.31,74002.5,5.53,-18.11,-18.55,0,*76
1530849670.09,40841,19.25,73994.0,5.53,-18.11,-18.49,0,*7A
1530849671.3,40842,19.25,73994.0,5.53,-18.11,-18.55,0,*74
1530849672.54,40843,19.25,73996.3,5.57,-18.21,-18.59,0,*7E
1530849673.78,40844,19.31,73998.8,5.57,-18.21,-18.59,0,*79
1530849675.0,40845,19.25,73996.8,5.57,-18.17,-18.49,0,*7C
1530849676.19,40846,19.31,73996.0,5.53,-18.21,-18.69,0,*7C
1530849677.38,40847,19.31,73998.5,5.53,-18.25,-18.65,0,*75
1530849678.57,40848,19.25,73996.0,5.53,-18.25,-18.65,0,*7A
1530849679.79,40849,19.25,73998.0,5.53,-18.25,-18.55,0,*78
1530849680.98,40850,19.31,73998.8,5.53,-18.21,-18.49,0,*79
1530849682.19,40851,19.31,74000.0,5.53,-18.21,-18.55,0,*75
1530849683.38,40852,19.31,74000.3,5.53,-18.21,-18.49,0,*7B
1530849684.6,40853,19.25,73998.5,5.53,-18.25,-18.55,0,*73
1530849685.83,40854,19.25,73994.8,5.57,-18.21,-18.59,0,*78
1530849687.05,40855,19.31,73998.0,5.57,-18.17,-18.49,0,*7D
1530849688.25,40856,19.25,73998.5,5.53,-18.25,-18.65,0,*75
1530849689.44,40857,19.31,73998.5,5.53,-18.21,-18.65,0,*70
1530849690.65,40858,19.25,73996.5,5.53,-18.21,-18.55,0,*7C
1530849691.86,40859,19.25,73998.3,5.53,-18.11,-18.55,0,*7E
1530849693.06,40860,19.25,73996.3,5.53,-18.21,-18.65,0,*74
1530849694.25,40861,19.31,73998.0,5.53,-18.25,-18.65,0,*71
1530849695.5,40862,19.31,73998.0,5.57,-18.17,-18.35,0,*72
1530849696.72,40863,19.25,73998.8,5.57,-18.17,-18.49,0,*78
1530849697.94,40864,19.31,74000.5,5.57,-18.17,-18.73,0,*76
1530849699.16,40865,19.31,73998.0,5.57,-18.21,-18.65,0,*75
1530849700.38,40866,19.25,73998.5,5.57,-18.21,-18.49,0,*78
1530849701.6,40867,19.25,73994.8,5.57,-18.17,-18.49,0,*7C
1530849702.8,40868,19.31,73996.8,5.59,-18.17,-18.49,0,*7D
1530849704.03,40869,19.31,73996.5,5.57,-18.17,-18.59,0,*73
1530849705.27,40870,19.31,73996.8,5.57,-18.21,-18.59,0,*7E
1530849706.47,40871,19.25,73996.3,5.59,-18.21,-18.49,0,*70
1530849707.69,40872,19.25,73996.5,5.57,-18.21,-18.49,0,*7D
1530849708.92,40873,19.31,73996.8,5.57,-18.21,-18.59,0,*7D
1530849710.16,40874,19.31,73998.8,5.57,-18.17,-18.59,0,*7F
1530849711.4,40875,19.25,73992.8,5.57,-18.21,-18.59,0,*7B
1530849712.62,40876,19.31,73996.8,5.57,-18.17,-18.49,0,*7C
1530849713.83,40877,19.31,73998.8,5.59,-18.17,-18.59,0,*72
1530849715.05,40878,19.25,73994.0,5.59,-18.21,-18.59,0,*78
1530849716.29,40879,19.25,73994.3,5.59,-18.31,-18.59,0,*78
1530849717.53,40880,19.31,73998.0,5.57,-18.21,-18.59,0,*71
1530849718.78,40881,19.31,73996.8,5.57,-18.31,-18.65,0,*7E
1530849720.0,40882,19.31,73996.0,5.57,-18.21,-18.65,0,*7C
1530849721.2,40883,19.31,73996.3,5.59,-18.07,-18.45,0,*75
1530849722.42,40884,19.31,73996.3,5.57,-18.21,-18.49,0,*74
1530849723.63,40885,19.31,73998.8,5.59,-18.17,-18.59,0,*7F
1530849724.84,40886,19.31,73998.3,5.59,-18.21,-18.59,0,*79
1530849726.06,40887,19.31,74000.3,5.57,-18.17,-18.49,0,*72
1530849727.28,40888,19.31,73998.0,5.59,-18.17,-18.59,0,*72
1530849728.5,40889,19.31,74002.3,5.57,-18.21,-18.65,0,*77
1530849729.72,40890,19.31,73996.8,5.57,-18.21,-18.65,0,*7F
1530849730.92,40891,19.31,73996.8,5.59,-18.21,-18.49,0,*7E
1530849732.11,40892,19.25,73998.5,5.59,-18.21,-18.65,0,*73
1530849733.36,40893,19.31,73998.0,5.57,-18.31,-18.65,0,*7D
1530849734.58,40894,19.31,73998.5,5.57,-18.21,-18.65,0,*7B
1530849735.78,40895,19.31,73996.3,5.59,-18.17,-18.65,0,*71
1530849736.98,40896,19.31,73996.5,5.59,-18.17,-18.65,0,*72
1530849738.2,40897,19.31,73996.8,5.57,-18.21,-18.65,0,*78
1530849739.44,40898,19.31,73996.8,5.57,-18.17,-18.59,0,*7D
1530849740.67,40899,19.31,73996.8,5.57,-18.21,-18.59,0,*79
1530849741.89,40900,19.31,73996.0,5.59,-18.21,-18.59,0,*76
1530849743.12,40901,19.31,73998.3,5.61,-18.17,-18.59,0,*79
1530849744.36,40902,19.31,73998.5,5.57,-18.21,-18.59,0,*7A
1530849745.57,40903,19.31,73998.3,5.59,-18.21,-18.59,0,*75
1530849746.77,40904,19.31,73996.8,5.63,-18.25,-18.69,0,*7C
1530849747.99,40905,19.25,73994.5,5.57,-18.21,-18.73,0,*75
1530849749.23,40906,19.25,73992.5,5.57,-18.17,-18.59,0,*7B
1530849750.44,40907,19.25,73996.5,5.59,-18.17,-18.59,0,*74
1530849751.65,40908,19.31,73996.8,5.59,-18.21,-18.59,0,*7E
1530849752.85,40909,19.31,73998.5,5.59,-18.17,-18.49,0,*7B
1530849754.06,40910,19.31,73998.3,5.59,-18.21,-18.59,0,*77
1530849755.28,40911,19.31,73996.8,5.59,-18.21,-18.59,0,*76
1530849756.49,40912,19.31,73998.3,5.59,-18.17,-18.59,0,*70
1530849757.71,40913,19.31,73998.0,5.57,-18.21,-18.49,0,*7B
1530849758.91,40914,19.31,73996.5,5.59,-18.21,-18.49,0,*72
1530849760.1,40915,19.31,74000.8,5.59,-18.21,-18.65,0,*7D
1530849761.3,40916,19.31,73996.3,5.59,-18.17,-18.49,0,*75
1530849762.5,40917,19.31,73998.0,5.59,-18.17,-18.49,0,*74
1530849763.69,40918,19.31,73998.0,5.59,-18.17,-18.49,0,*7B
1530849764.89,40919,19.31,73998.3,5.59,-18.17,-18.49,0,*7A
1530849766.11,40920,19.31,73998.0,5.59,-18.17,-18.59,0,*71
1530849767.3,40921,19.31,73998.0,5.59,-18.17,-18.49,0,*71
1530849768.52,40922,19.31,73998.5,5.59,-18.21,-18.59,0,*76
1530849769.73,40923,19.31,73996.3,5.59,-18.17,-18.59,0,*72
1530849770.97,40924,19.31,73996.0,5.59,-18.31,-18.59,0,*71
1530849772.21,40925,19.31,73996.0,5.61,-18.17,-18.59,0,*7F
1530849773.43,40926,19.31,73998.0,5.59,-18.35,-18.73,0,*7F
1530849774.67,40927,19.25,73996.5,5.61,-18.25,-18.59,0,*7C
1530849775.88,40928,19.31,73996.5,5.61,-18.11,-18.45,0,*79
1530849777.1,40929,19.31,73998.5,5.61,-18.11,-18.45,0,*78
1530849778.31,40930,19.31,73996.0,5.61,-18.11,-18.45,0,*70
1530849779.55,40931,19.31,73998.3,5.61,-18.11,-18.55,0,*70
1530849780.77,40932,19.31,73998.5,5.61,-18.11,-18.45,0,*72
1530849782.01,40933,19.31,73998.3,5.63,-18.01,-18.55,0,*71
1530849783.23,40934,19.31,73998.3,5.67,-18.11,-18.55,0,*73
1530849784.44,40935,19.31,73998.0,5.63,-18.17,-18.55,0,*70
1530849785.64,40936,19.25,73992.0,5.63,-18.11,-18.45,0,*74
1530849786.86,40937,19.31,73996.8,5.63,-17.97,-18.45,0,*74
1530849788.1,40938,19.31,73998.8,5.61,-18.01,-18.45,0,*79
1530849789.32,40939,19.31,73998.8,5.63,-18.01,-18.45,0,*7A
1530849790.56,40940,19.31,74000.5,5.61,-18.11,-18.55,0,*76
1530849791.78,40941,19.31,73998.0,5.63,-18.25,-18.55,0,*72
1530849792.97,40942,19.25,73994.0,5.63,-18.17,-18.69,0,*7F
1530849794.16,40943,19.31,73996.8,5.63,-18.11,-18.41,0,*72
1530849795.38,40944,19.31,73996.8,5.63,-18.17,-18.55,0,*76
1530849796.65,40945,19.31,73998.5,5.61,-18.31,-18.55,0,*71
1530849797.86,40946,19.31,73994.8,5.67,-18.07,-18.55,0,*71
1530849799.08,40947,19.31,73998.5,5.63,-18.17,-18.55,0,*75
1530849800.31,40948,19.31,73996.8,5.61,-18.17,-18.59,0,*74
1530849801.53,40949,19.25,73994.8,5.67,-18.21,-18.55,0,*7A
1530849802.75,40950,19.31,73998.5,5.63,-18.11,-18.55,0,*75
1530849803.94,40951,19.31,73994.3,5.63,-18.11,-18.69,0,*7B
1530849805.15,40952,19.31,73996.5,5.63,-18.17,-18.59,0,*7D
1530849806.36,40953,19.31,73998.3,5.63,-18.17,-18.59,0,*7C
1530849807.55,40954,19.31,73998.8,5.63,-18.25,-18.69,0,*79
1530849808.79,40955,19.31,73996.8,5.61,-18.25,-18.59,0,*79
1530849809.98,40956,19.31,73998.3,5.63,-18.17,-18.69,0,*7A
1530849811.19,40957,19.31,73998.5,5.63,-18.25,-18.59,0,*79
1530849812.41,40958,19.25,73992.0,5.67,-18.11,-18.55,0,*79
1530849813.62,40959,19.31,73996.0,5.63,-18.17,-18.55,0,*7A
1530849814.86,40960,19.31,73996.5,5.61,-18.17,-18.55,0,*72
1530849816.07,40961,19.31,73998.3,5.63,-18.25,-18.59,0,*7C
1530849817.26,40962,19.31,73996.0,5.67,-18.11,-18.65,0,*73
1530849818.48,40963,19.31,73998.0,5.67,-18.11,-18.55,0,*71
1530849819.67,40964,19.31,74002.0,5.63,-18.25,-18.69,0,*7A
1530849820.88,40965,19.31,73998.8,5.63,-18.25,-18.59,0,*78
1530849822.1,40966,19.31,73998.8,5.67,-18.21,-18.55,0,*77
1530849823.32,40967,19.31,73998.5,5.67,-18.21,-18.55,0,*76
1530849824.53,40968,19.31,73996.0,5.63,-18.17,-18.59,0,*74
1530849825.74,40969,19.31,73998.3,5.63,-18.11,-18.55,0,*7F
1530849826.95,40970,19.31,73996.0,5.63,-18.17,-18.59,0,*7D
1530849828.16,40971,19.31,73998.3,5.63,-18.17,-18.59,0,*7C
1530849829.36,40972,19.31,73996.0,5.67,-18.21,-18.65,0,*71
1530849830.55,40973,19.31,73998.3,5.67,-18.17,-18.49,0,*7B
1530849831.74,40974,19.31,73996.8,5.67,-18.11,-18.65,0,*74
1530849832.96,40975,19.31,73996.8,5.67,-18.11,-18.55,0,*76
1530849834.18,40976,19.31,73996.3,5.67,-18.07,-18.55,0,*72
1530849835.39,40977,19.31,73998.3,5.67,-18.11,-18.55,0,*74
1530849836.61,40978,19.31,73998.3,5.67,-18.11,-18.55,0,*7B
1530849837.8,40979,19.31,73998.0,5.67,-18.11,-18.65,0,*79
1530849838.99,40980,19.31,73998.8,5.67,-18.11,-18.65,0,*7F
1530849840.21,40981,19.31,73998.8,5.69,-18.07,-18.49,0,*79
1530849841.43,40982,19.31,73996.8,5.67,-18.07,-18.55,0,*79
1530849842.64,40983,19.31,73996.5,5.67,-18.21,-18.55,0,*7C
1530849843.84,40984,19.31,73996.8,5.67,-18.11,-18.49,0,*75
1530849845.03,40985,19.31,73998.8,5.67,-18.07,-18.49,0,*73
1530849846.25,40986,19.31,73996.5,5.67,-18.21,-18.55,0,*79
1530849847.47,40987,19.31,73996.5,5.67,-18.07,-18.55,0,*7C
1530849848.69,40988,19.31,73998.0,5.67,-17.97,-18.41,0,*70
1530849849.91,40989,19.31,73998.0,5.67,-17.97,-18.41,0,*71
1530849851.13,40990,19.31,73996.5,5.67,-18.01,-18.45,0,*7D
1530849852.37,40991,19.31,73996.3,5.69,-18.17,-18.35,0,*72
1530849853.59,40992,19.31,73998.8,5.67,-17.97,-18.41,0,*7B
1530849854.8,40993,19.31,73998.0,5.67,-18.11,-18.55,0,*7E
1530849856.02,40994,19.31,73998.0,5.67,-18.07,-18.55,0,*7E
1530849857.24,40995,19.31,73996.8,5.67,-18.11,-18.55,0,*78
1530849858.43,40996,19.31,73998.5,5.67,-18.11,-18.49,0,*76
1530849859.67,40997,19.31,73994.3,5.69,-18.01,-18.45,0,*74
1530849860.91,40998,19.31,73992.5,5.69,-18.01,-18.45,0,*7B
1530849862.13,40999,19.31,73994.5,5.69,-18.17,-18.49,0,*71
1530849863.36,41000,19.31,73998.0,5.69,-18.07,-18.59,0,*79
1530849864.6,41001,19.31,73998.3,5.69,-18.17,-18.55,0,*75
1530849865.82,41002,19.31,73996.5,5.69,-18.07,-18.49,0,*7A
1530849867.04,41003,19.31,73998.8,5.69,-18.07,-18.49,0,*7B
1530849868.27,41004,19.31,73994.3,5.69,-18.07,-18.59,0,*7D
1530849869.55,41005,19.31,73996.0,5.69,-18.01,-18.35,0,*70
1530849870.79,41006,19.31,73996.3,5.69,-18.01,-18.49,0,*78
1530849872.0,41007,19.31,73998.8,5.69,-18.07,-18.49,0,*7F
1530849873.22,41008,19.31,73996.5,5.69,-18.07,-18.45,0,*7C
1530849874.44,41009,19.31,73996.5,5.69,-18.07,-18.49,0,*71
1530849875.68,41010,19.31,73992.5,5.69,-18.07,-18.59,0,*78
1530849876.89,41011,19.31,73996.3,5.69,-18.07,-18.49,0,*78
1530849878.13,41012,19.31,73998.0,5.69,-18.17,-18.59,0,*7B
1530849879.34,41013,19.31,73998.5,5.69,-18.17,-18.49,0,*7B
1530849880.53,41014,19.31,73998.3,5.71,-18.07,-18.49,0,*74
1530849881.77,41015,19.31,73998.8,5.69,-18.17,-18.59,0,*7C
1530849883.0,41016,19.31,73994.3,5.69,-18.07,-18.59,0,*7E
1530849884.24,41017,19.31,73996.8,5.69,-18.17,-18.59,0,*7E
1530849885.45,41018,19.31,73998.8,5.69,-18.07,-18.49,0,*71
1530849886.67,41019,19.31,73998.0,5.69,-18.07,-18.45,0,*7C
1530849887.89,41020,19.31,73994.0,5.69,-18.07,-18.45,0,*76
1530849889.11,41021,19.31,73996.3,5.69,-18.21,-18.49,0,*7F
1530849890.31,41022,19.31,73996.3,5.71,-18.17,-18.59,0,*71
1530849891.56,41023,19.31,73998.3,5.71,-18.01,-18.35,0,*7D
1530849892.83,41024,19.31,73996.0,5.73,-17.97,-18.31,0,*7C
1530849894.03,41025,19.31,73996.5,5.71,-18.07,-18.49,0,*76
1530849895.22,41026,19.31,73998.8,5.71,-18.07,-18.49,0,*75
1530849896.43,41027,19.31,73998.0,5.71,-18.01,-18.49,0,*72
1530849897.68,41028,19.31,73996.8,5.71,-18.01,-18.35,0,*76
1530849898.92,41029,19.31,73998.3,5.73,-17.97,-18.45,0,*72
1530849900.13,41030,19.31,73998.8,5.71,-18.07,-18.59,0,*73
1530849901.37,41031,19.31,73996.5,5.73,-18.11,-18.55,0,*7B
1530849902.65,41032,19.31,73996.3,5.73,-17.97,-18.31,0,*7B
1530849903.89,41033,19.31,73998.0,5.73,-18.01,-18.41,0,*7D
1530849905.13,41034,19.31,73996.8,5.73,-18.11,-18.55,0,*7E
1530849906.34,41035,19.31,73998.8,5.71,-18.21,-18.59,0,*72
1530849907.55,41036,19.31,73994.5,5.73,-18.11,-18.45,0,*7D
1530849908.77,41037,19.31,73996.3,5.71,-18.07,-18.35,0,*7E
1530849910.02,41038,19.31,73998.0,5.73,-17.87,-18.31,0,*70
1530849911.26,41039,19.31,73998.3,5.73,-18.01,-18.41,0,*77
1530849912.48,41040,19.31,73998.5,5.73,-18.17,-18.45,0,*7A
1530849913.72,41041,19.31,73996.8,5.73,-18.11,-18.55,0,*7C
1530849914.91,41042,19.31,73996.8,5.75,-18.17,-18.65,0,*7C
1530849916.12,41043,19.31,73998.5,5.71,-18.17,-18.59,0,*76
1530849917.32,41044,19.31,74000.5,5.71,-18.17,-18.59,0,*71
1530849918.56,41045,19.31,73996.5,5.73,-18.11,-18.55,0,*78
1530849919.78,41046,19.31,73996.8,5.73,-18.11,-18.45,0,*7A
1530849920.99,41047,19.31,73998.5,5.75,-18.11,-18.55,0,*7C
1530849922.19,41048,19.31,73998.3,5.75,-18.11,-18.45,0,*72
1530849923.42,41049,19.31,73998.3,5.73,-18.11,-18.59,0,*78
1530849924.65,41050,19.31,73996.3,5.73,-18.11,-18.59,0,*70
1530849925.87,41051,19.31,73998.0,5.75,-18.17,-18.55,0,*7D
1530849927.08,41052,19.31,73998.0,5.75,-18.17,-18.55,0,*7E
1530849928.29,41053,19.31,74000.5,5.75,-18.11,-18.59,0,*75
1530849929.5,41054,19.31,73998.5,5.75,-18.17,-18.59,0,*74
1530849930.72,41055,19.31,73998.0,5.77,-18.07,-18.41,0,*7F
1530849931.94,41056,19.31,73996.8,5.75,-18.01,-18.45,0,*7C
1530849933.18,41057,19.31,73998.5,5.75,-17.97,-18.55,0,*7C
1530849934.43,41058,19.31,73998.8,5.75,-18.01,-18.55,0,*73
1530849935.64,41059,19.31,73998.8,5.77,-18.07,-18.41,0,*73
1530849936.88,41060,19.31,73996.3,5.77,-17.93,-18.41,0,*7B
1530849938.1,41061,19.31,73996.3,5.75,-17.97,-18.45,0,*78
1530849939.33,41062,19.31,73996.8,5.75,-18.01,-18.45,0,*7B
1530849940.54,41063,19.31,73996.5,5.75,-18.17,-18.55,0,*7C
1530849941.76,41064,19.31,73996.3,5.75,-18.11,-18.55,0,*7D
1530849943.0,41065,19.31,74000.8,5.75,-18.01,-18.55,0,*7D
1530849944.24,41066,19.31,73996.0,5.77,-17.97,-18.41,0,*79
1530849945.46,41067,19.31,73996.3,5.77,-18.07,-18.49,0,*76
1530849946.7,41068,19.31,73996.8,5.77,-17.97,-18.49,0,*7F
1530849947.92,41069,19.31,73994.8,5.77,-18.07,-18.49,0,*78
1530849949.14,41070,19.31,73998.5,5.77,-18.11,-18.41,0,*7F
1530849950.38,41071,19.31,73996.3,5.75,-18.01,-18.55,0,*78
1530849951.6,41072,19.31,73996.5,5.77,-18.07,-18.49,0,*72
1530849952.84,41073,19.31,73998.0,5.77,-17.97,-18.41,0,*7D
1530849954.03,41074,19.31,73998.3,5.75,-18.07,-18.49,0,*76
1530849955.28,41075,19.31,74000.5,5.77,-17.97,-18.41,0,*7B
1530849956.49,41076,19.31,73996.5,5.77,-18.11,-18.49,0,*71
1530849957.71,41077,19.31,73998.5,5.77,-18.07,-18.49,0,*77
1530849958.95,41078,19.31,73998.3,5.77,-18.11,-18.55,0,*72
1530849960.17,41079,19.31,73996.3,5.79,-18.01,-18.45,0,*7D
1530849961.39,41080,19.31,73996.8,5.79,-18.01,-18.45,0,*7B
1530849962.61,41081,19.31,73996.5,5.79,-18.01,-18.45,0,*7A
1530849963.83,41082,19.31,73998.0,5.79,-18.01,-18.45,0,*79
1530849965.05,41083,19.31,73998.0,5.79,-18.07,-18.35,0,*79
1530849966.27,41084,19.31,74002.8,5.81,-18.07,-18.45,0,*7E
1530849967.49,41085,19.31,73996.5,5.81,-18.07,-18.45,0,*7F
1530849968.73,41086,19.31,73998.0,5.79,-18.01,-18.35,0,*7A
1530849969.92,41087,19.31,73996.8,5.83,-17.87,-18.25,0,*7E
1530849971.2,41088,19.31,73998.0,5.81,-17.93,-18.31,0,*73
1530849972.45,41089,19.31,73996.3,5.79,-17.93,-18.31,0,*75
1530849973.66,41090,19.31,73998.5,5.79,-17.93,-18.45,0,*7E
1530849974.91,41091,19.31,73998.0,5.81,-17.93,-18.45,0,*78
1530849976.13,41092,19.31,73996.8,5.79,-18.07,-18.35,0,*79
1530849977.38,41093,19.31,74000.8,5.79,-18.01,-18.35,0,*7E
1530849978.59,41094,19.31,73996.8,5.79,-18.01,-18.45,0,*7E
1530849979.84,41095,19.31,73998.0,5.81,-18.01,-18.45,0,*78
1530849981.08,41096,19.31,73996.5,5.79,-18.01,-18.35,0,*7B
1530849982.3,41097,19.31,73998.8,5.79,-18.01,-18.45,0,*7D
1530849983.55,41098,19.31,73996.8,5.81,-18.01,-18.45,0,*75
1530849984.82,41099,19.31,73998.5,5.81,-18.01,-18.35,0,*73
1530849986.09,41100,19.31,74000.0,5.81,-17.93,-18.35,0,*76
1530849987.33,41101,19.31,73996.8,5.81,-17.87,-18.31,0,*76
1530849988.53,41102,19.31,73998.5,5.83,-17.83,-18.17,0,*77
1530849989.72,41103,19.31,73996.5,5.83,-17.83,-18.17,0,*76
1530849990.92,41104,19.31,73996.3,5.83,-17.73,-18.17,0,*7E
1530849992.11,41105,19.31,73998.3,5.83,-17.83,-18.17,0,*70
1530849993.3,41106,19.31,73998.8,5.83,-17.83,-18.25,0,*72
1530849994.49,41107,19.31,73996.0,5.83,-17.73,-18.17,0,*7D
1530849995.69,41108,19.31,74000.3,5.83,-17.73,-18.17,0,*72
1530849996.91,41109,19.31,73998.5,5.83,-17.73,-18.01,0,*74
1530849998.15,41110,19.31,73996.8,5.85,-17.59,-18.11,0,*73
1530849999.34,41111,19.31,74000.3,5.83,-17.73,-18.17,0,*7A
1530850000.58,41112,19.31,73996.8,5.85,-17.69,-18.01,0,*73
1530850001.8,41113,19.31,73998.8,5.85,-17.69,-18.11,0,*73
1530850003.03,41114,19.31,73996.0,5.83,-17.59,-18.11,0,*71
1530850004.27,41115,19.31,73996.0,5.85,-17.55,-18.11,0,*7A
1530850005.53,41116,19.31,73998.0,5.89,-17.55,-18.07,0,*72
1530850006.78,41117,19.31,73998.0,5.89,-17.63,-18.07,0,*76
1530850008.03,41118,19.31,73998.3,5.89,-17.49,-17.93,0,*73
1530850009.26,41119,19.31,73996.0,5.91,-17.49,-18.01,0,*7F
1530850010.52,41120,19.31,73996.5,5.91,-17.45,-17.93,0,*7D
1530850011.76,41121,19.31,73996.8,5.91,-17.45,-17.87,0,*79
1530850013.03,41122,19.31,73996.8,5.89,-17.55,-17.93,0,*77
1530850014.26,41123,19.31,73998.0,5.91,-17.49,-17.93,0,*72
1530850015.49,41124,19.31,73998.5,5.91,-17.49,-17.93,0,*75
1530850016.73,41125,19.31,73996.8,5.93,-17.49,-17.87,0,*73
1530850017.97,41126,19.31,74000.0,5.91,-17.45,-17.87,0,*7E
1530850019.23,41127,19.31,74000.5,5.91,-17.45,-17.79,0,*7E
1530850020.52,41128,19.31,74000.0,5.93,-17.41,-17.79,0,*77
1530850021.81,41129,19.38,74002.8,5.93,-17.41,-17.79,0,*76
1530850023.1,41130,19.31,73998.3,5.93,-17.45,-17.79,0,*7A
1530850024.33,41131,19.31,73998.0,5.95,-17.41,-17.73,0,*73
1530850025.57,41132,19.31,73996.5,5.95,-17.41,-17.83,0,*7F
1530850026.81,41133,19.31,73996.0,5.95,-17.45,-17.73,0,*75
1530850028.07,41134,19.31,73998.3,5.95,-17.25,-17.59,0,*7C
1530850029.33,41135,19.31,74000.5,5.99,-17.21,-17.63,0,*7C
1530850030.58,41136,19.31,73998.0,5.97,-17.25,-17.69,0,*7F
1530850031.82,41137,19.31,73996.8,5.97,-17.35,-17.69,0,*7F
1530850033.07,41138,19.31,73996.3,5.99,-17.21,-17.55,0,*74
1530850034.36,41139,19.31,73996.3,6.01,-17.25,-17.59,0,*7F
1530850035.64,41140,19.31,73996.8,6.01,-17.25,-17.59,0,*71
1530850036.93,41141,19.31,73998.5,6.01,-17.17,-17.59,0,*71
1530850038.21,41142,19.31,74000.0,6.01,-17.17,-17.59,0,*72
1530850039.47,41143,19.31,74002.0,6.03,-17.11,-17.59,0,*77
1530850040.73,41144,19.31,73998.5,6.03,-17.17,-17.59,0,*76
1530850042.0,41145,19.31,73998.5,6.03,-17.25,-17.59,0,*76
1530850043.26,41146,19.31,73996.3,6.03,-17.17,-17.59,0,*74
1530850044.49,41147,19.31,73998.5,6.03,-17.17,-17.49,0,*74
1530850045.72,41148,19.31,73998.5,6.03,-17.03,-17.49,0,*7E
1530850047.0,41149,19.38,74002.3,6.05,-17.11,-17.45,0,*76
1530850048.29,41150,19.31,73996.8,6.05,-17.07,-17.45,0,*79
1530850049.55,41151,19.31,73998.0,6.07,-17.03,-17.41,0,*7A
1530850050.76,41152,19.31,73996.3,6.07,-16.93,-17.35,0,*72
1530850052.0,41153,19.31,73996.8,6.07,-17.03,-17.35,0,*7B
1530850053.24,41154,19.31,73998.8,6.07,-17.07,-17.35,0,*78
1530850054.46,41155,19.31,73996.8,6.07,-16.93,-17.35,0,*75
1530850055.71,41156,19.31,73996.8,6.09,-16.93,-17.21,0,*7D
1530850056.93,41157,19.31,73998.5,6.13,-16.89,-17.31,0,*7D
1530850058.16,41158,19.38,73998.5,6.13,-16.83,-17.31,0,*78
1530850059.41,41159,19.38,73996.8,6.13,-16.83,-17.17,0,*7D
1530850060.66,41160,19.31,73996.0,6.13,-16.89,-17.17,0,*7D
1530850061.91,41161,19.31,73998.3,6.13,-16.83,-17.17,0,*76
1530850063.14,41162,19.31,73996.3,6.15,-16.83,-17.25,0,*72
1530850064.39,41163,19.31,73998.5,6.17,-16.83,-17.11,0,*76
1530850065.65,41164,19.31,73996.3,6.17,-16.83,-17.11,0,*71
1530850066.91,41165,19.38,73998.5,6.17,-16.83,-17.11,0,*70
1530850068.18,41166,19.31,73998.0,6.19,-16.65,-17.07,0,*72
1530850069.41,41167,19.31,73996.5,6.21,-16.75,-17.03,0,*7D
1530850070.64,41168,19.31,73998.5,6.21,-16.75,-17.03,0,*72
1530850071.87,41169,19.38,73996.5,6.21,-16.75,-17.03,0,*73
1530850073.11,41170,19.38,73996.0,6.21,-16.75,-17.07,0,*7F
1530850074.39,41171,19.31,73996.0,6.23,-16.69,-17.17,0,*70
1530850075.63,41172,19.31,73998.0,6.25,-16.75,-17.03,0,*7D
1530850076.86,41173,19.38,74000.0,6.25,-16.75,-17.03,0,*7C
1530850078.1,41174,19.31,73996.3,6.25,-16.59,-17.03,0,*75
1530850079.36,41175,19.38,74000.8,6.25,-16.69,-17.17,0,*72
1530850080.62,41176,19.38,73996.8,6.27,-16.65,-16.97,0,*76
1530850081.87,41177,19.38,73996.8,6.27,-16.69,-16.97,0,*7B
1530850083.16,41178,19.38,73996.0,6.27,-16.69,-17.11,0,*7B
1530850084.39,41179,19.38,73998.3,6.29,-16.65,-16.97,0,*77
1530850085.61,41180,19.31,73998.5,6.29,-16.79,-17.11,0,*73
1530850086.87,41181,19.38,74000.5,6.27,-16.69,-16.97,0,*72
1530850088.12,41182,19.38,74002.3,6.29,-16.69,-17.11,0,*70
1530850089.38,41183,19.38,73996.8,6.29,-16.69,-17.11,0,*71
1530850090.63,41184,19.38,74002.0,6.29,-16.69,-17.11,0,*76
1530850091.89,41185,19.38,73998.8,6.35,-16.45,-17.03,0,*77
1530850093.14,41186,19.31,73996.3,6.35,-16.59,-17.03,0,*79
1530850094.4,41187,19.38,74000.3,6.35,-16.55,-17.03,0,*74
1530850095.66,41188,19.38,73998.3,6.37,-16.69,-17.07,0,*72
1530850096.89,41189,19.38,74000.0,6.39,-16.55,-16.83,0,*7F
1530850098.1,41190,19.38,73996.5,6.37,-16.55,-16.97,0,*7C